Volver al catálogo

YAOGAN-36 05B

ActivoMilitarVLEO
NORAD 57454·PAYLOAD·🇨🇳 China

Lanzado Jul 26, 2023 desde Xichang Satellite Launch Center

Loading…

Próximos Pases (próximas 24 horas)

TLE

ActualizadoSource: Space-Track

Época: Sep 14, 2026, 16:26 UTC

1 57454U 23106C   26257.68533683  .00004104  00000-0  20181-3 0  9995
2 57454  34.9939 243.0933 0021914 184.6785 175.3725 15.17261025174466

Sigue YAOGAN-36 05B en tiempo real con AllMySat

Download on the App Store